User: anonymous   Login
Location: Caltech
(34.1382°N, 118.1253°W)
Time: 13:30:09
(UTC-07:00)
Language:

Cosmos 2237 Rocket - Orbit

View from above orbital plane
View from above orbital plane
View from above satellite
View from above satellite

Ground track
Ground track

The orbit data is extracted from the following two-line orbital elements,

1 22566U 93016B   17200.86785521 -.00000293 +00000-0 -12661-3 0  9997
2 22566 071.0082 358.3251 0008014 081.2985 278.9045 14.14949547255885
Epoch (UTC): 19 July 2017 20:49:42
Eccentricity: 0.0008014
inclination: 71.0082°
perigee height: 837 km
apogee height: 848 km
right ascension of ascending node: 358.3251°
argument of perigee: 81.2985°
revolutions per day: 14.14949547
mean anomaly at epoch: 278.9045°
orbit number at epoch: 25588

The dashed part of the orbit path shows where the satellite is in the earth's shadow,  

DLR